Regional Weather Roundup
Issued by NWS Kansas City/Pleasant Hill, MO

Home | Current Version | Previous Version | Graphics & Text | Print | Product List | Glossary Off
Versions: 1 2 3 4 5 6 7 8 9 10 11 12 13 14 15 16 17 18 19 20 21 22 23 24 25 26 27 28 29 30 31 32 33 34 35 36 37 38 39 40 41 42 43 44 45 46 47 48 49 50

842
ASUS43 KEAX 261710
RWREAX

WEATHER ROUNDUP FOR EASTERN KANSAS AND NORTHWEST MISSOURI
NATIONAL WEATHER SERVICE KANSAS CITY/PLEASANT HILL MO
1200 PM CDT MON SEP 26 2016

KSZ040-057-103>105-MOZ028-029-037-043-261800-
...KANSAS CITY METROPOLITAN AREA...

CITY           SKY/WX    TMP DP  RH WIND       PRES   REMARKS
K.C. INTL      SUNNY     68  39  34 VRB5      30.26F
K.C. DOWNTOWN  SUNNY     70  40  33 W7        30.26F
LEES SUMMIT    SUNNY     68  40  35 NW10      30.27F
OLATHE - IXD   SUNNY     68  40  35 N8        30.28F
OLATHE - OJC   SUNNY     68  39  34 N7        30.28F
LAWRENCE       SUNNY     69  41  36 VRB6      30.28F

$$

MOZ001>008-011>017-020>025-030>033-038>040-044>046-053-054-261800-
...NORTHERN AND CENTRAL MISSOURI...

CITY           SKY/WX    TMP DP  RH WIND       PRES   REMARKS
ST. JOSEPH     SUNNY     70  36  28 NW8G20    30.25F
MOSBY          SUNNY     70  37  30 NW10G17   30.26S
WHITEMAN AFB   MOSUNNY   70  38  30 N10       30.24S
CLINTON        SUNNY     68  39  34 NW13      30.26F
SEDALIA        SUNNY     71  36  27 N16       30.25F
WARSAW         NOT AVBL
CHILLICOTHE      N/A     70  41  34 NW8G18    30.23F
KIRKSVILLE     SUNNY     68  40  35 NW12G21   30.20F

$$

MOZ041-047>049-056>058-063>065-088>090-097-261800-
...EASTERN AND SOUTHERN MISSOURI...

CITY           SKY/WX    TMP DP  RH WIND       PRES   REMARKS
ST. LOUIS INTL MOSUNNY   71  39  31 NW14G21   30.17F
SPIRIT OF STL  MOSUNNY   70  43  37 NW8       30.17F
COLUMBIA       SUNNY     69  38  32 NW14      30.22F
JEFFERSON CITY SUNNY     69  36  29 NW10      30.21F
ROLLA          SUNNY     67  44  43 NW10      30.20F
OSAGE BEACH    SUNNY     67  43  41 NW7       30.24F
SPRINGFIELD    SUNNY     69  42  37 N10G23    30.25F
BRANSON        MOSUNNY   68  48  49 N14       30.26S
JOPLIN         SUNNY     69  46  43 NE7       30.28F
WEST PLAINS    MOSUNNY   70  47  43 NE10      30.23F

$$

IAZ060-094-KSZ022-034>040-054-083-096-NEZ052-066-093-261800-
...KANSAS...SOUTHEAST NEBRASKA AND IOWA...

CITY           SKY/WX    TMP DP  RH WIND       PRES   REMARKS
TOPEKA         SUNNY     68  45  43 SW6       30.28F
MANHATTAN      SUNNY     70  41  34 VRB3      30.29F
EMPORIA        SUNNY     69  37  30 N8        30.30F
CHANUTE        SUNNY     70  40  33 VRB6      30.29F
WICHITA        MOSUNNY   71  38  29 N8        30.32F
OMAHA          SUNNY     70  40  33 W18       30.21F
LINCOLN        SUNNY     73  37  27 W15       30.25F
FALLS CITY     SUNNY     70  43  37 W9G18     30.24F
LAMONI         SUNNY     68  40  35 W16G26    30.20F
DES MOINES     MOSUNNY   69  39  33 NW14      30.14F

$$





USA.gov is the U.S. government's official web portal to all federal, state and local government web resources and services.